Content
SEND FEEDBACK

Daily
Averages
Monthly
Summary
Turkmenistan

ASHGABAT, TURKMENISTAN


Home > Asia > Turkmenistan
Elevation: 236 meters     Latitude: 37 58N     Longitude: 058 20E

WEATHER
 
SELECT A DAY
Number of Records: 177,237;   Date Range: 3/15/97 - 7/26/14
 
SHARE

PRINT THIS DATA

[ ← Previous Day ]
WEATHER ALMANAC - 12 JUNE, 2013
[ Next Day → ]
[ °F ]   °C
Weather ElementAverageHighLow
Temperature28.9 °C35 °C (3:00 pm)21 °C (6:00 am)
Dewpoint5.1 °C11.1 °C (2:00 am)1 °C (9:00 am)
Humidity21.1 %38 % (5:00 am)12 % (3:00 pm)
Barometer1006.1 hPa1008.1 hPa (9:00 am)1004.1 hPa (6:00 pm)
Wind Speed9.7 km/h25.3 km/h (10:00 am)
Weather ElementAverage
Visibility9.7 km
Wind DirectionWSW (233.5 °)

Weather ElementTotal
Precipitation---
Cooling Degree Days9.7 (Base 18.3)
Growing Degree Days18 (Base 10)
Averaged from 31 records on 12 June, 2013
WEATHER CONDITIONS BREAKOUT
WIND DIRECTION BREAKOUT
WEATHER BY HOUR - 12 JUNE, 2013
[ °F ]   °C
Local TimeTemperatureDewpointHumidityBarometerVisibilityWind DirectionWind SpeedGust SpeedPrecipitationEventsConditions
1:00 AM25 °C5 °C28 %1006.1 hPa10 kmWSW (240°)7.2 km/hClear
2:00 AM25 °C11.1 °C31 %1006.1 hPa9.7 kmWest (260°)3.5 km/h
2:00 AM24 °C6 °C31 %1006.1 hPa8 kmWSW (250°)7.2 km/hClear
3:00 AM23 °C7 °C36 %1006.1 hPa10 kmSW (220°)10.8 km/hPartly Cloudy
4:00 AM23 °C6 °C33 %1006.1 hPa10 kmCalmPartly Cloudy
5:00 AM22.2 °C10 °C34 %1006.4 hPa9.7 kmSW (220°)7.2 km/hPartly Cloudy
5:00 AM22 °C7 °C38 %1006.1 hPa8 kmSSW (210°)7.2 km/hScattered Clouds
6:00 AM21 °C5 °C35 %1007.1 hPa10 kmWSW (240°)7.2 km/hScattered Clouds
7:00 AM24 °C4 °C27 %1007.1 hPa10 kmWNW (300°)10.8 km/hClear
8:00 AM26.1 °C8.3 °C22 %1006.8 hPa9.7 kmWNW (300°)7.2 km/hScattered Clouds
8:00 AM28 °C3 °C20 %1007.1 hPa10 kmWNW (290°)7.2 km/hPartly Cloudy
9:00 AM30 °C1 °C15 %1008.1 hPa10 kmWNW (300°)14.3 km/hScattered Clouds
10:00 AM30 °C6 °C22 %1008.1 hPa10 kmWNW (300°)25.3 km/hScattered Clouds
11:00 AM31.1 °C7.2 °C13 %1007.1 hPa9.7 kmNW (310°)25.3 km/hPartly Cloudy
11:00 AM31 °C1 °C15 %1008.1 hPa10 kmWNW (300°)25.3 km/hMostly Cloudy
12:00 PM32 °C4 °C17 %1008.1 hPa10 kmWNW (290°)14.3 km/hMostly Cloudy
1:00 PM33 °C2 °C14 %1007.1 hPa10 kmNW (310°)7.2 km/hMostly Cloudy
2:00 PM33.3 °C10 °C15 %1006.4 hPa9.7 kmNW (320°)7.2 km/hPartly Cloudy
2:00 PM33 °C1 °C13 %1007.1 hPa10 kmNorth (360°)7.2 km/hOvercast
3:00 PM35 °C2 °C12 %1006.1 hPa10 kmNNW (340°)10.8 km/hOvercast
4:00 PM34 °C3 °C14 %1006.1 hPa10 kmSSW (210°)10.8 km/hOvercast
5:00 PM32.8 °C10.6 °C16 %1004.4 hPa9.7 kmWSW (250°)10.8 km/hRainLight Rain Showers
5:00 PM34 °C1 °C12 %1005.1 hPa10 kmWSW (250°)10.8 km/hOvercast
6:00 PM34 °C1 °C12 %1004.1 hPa10 kmNW (310°)14.3 km/hMostly Cloudy
7:00 PM34 °C2 °C13 %1004.1 hPa10 kmCalmMostly Cloudy
8:00 PM33.3 °C8.3 °C13 %1004.1 hPa9.7 kmWest (270°)7.2 km/hPartly Cloudy
8:00 PM33 °C2 °C14 %1005.1 hPa10 kmVariable3.5 km/hMostly Cloudy
9:00 PM29 °C5 °C22 %1005.1 hPa10 kmVariable3.5 km/hMostly Cloudy
10:00 PM28 °C5 °C23 %1006.1 hPa10 kmSSW (210°)10.8 km/hMostly Cloudy
11:00 PM26.7 °C7.2 °C19 %1005.4 hPa9.7 kmSouth (190°)7.2 km/hScattered Clouds
11:00 PM26 °C5 °C26 %1006.1 hPa8 kmSouth (190°)7.2 km/hScattered Clouds
Hourly data recorded from UTAA, located 0 kilometers away from Ashgabat, Turkmenistan







STORIES FROM OUR PARTNERS